Theta_e
277 277 277 278 278 277 278 277 275 271 272 274 275 278 278 279 280 280 279 282 284 285 286 288 289 290 292 294 295 296 297 298 299 300 301 303 305 309
277 276 276 277 276 276 276 276 275 273 271 274 274 276 277 278 279 278 278 280 281 283 284 285 287 289 290 291 292 294 296 297 297 298 299 300 302 303
276 276 276 276 275 274 274 274 274 273 271 273 274 275 275 275 276 276 277 276 277 281 283 284 285 286 287 287 288 290 292 293 295 296 297 297 299 300
276 276 275 277 274 274 273 273 272 272 271 271 273 273 273 274 274 274 276 277 276 279 283 283 284 284 285 285 286 287 288 289 290 291 294 296 296 298
276 275 275 275 274 273 273 272 272 274 272 272 271 273 273 274 273 274 275 275 277 280 281 282 282 283 283 284 284 285 284 285 286 288 290 292 293 295
276 276 275 274 274 273 273 273 274 273 273 272 271 272 273 274 274 273 273 275 275 277 279 279 281 281 282 283 283 282 283 284 286 287 288 289 290 291
275 276 275 275 277 277 275 274 273 272 272 271 271 272 272 273 272 274 273 274 275 276 275 276 277 277 278 280 280 281 283 285 285 285 286 287 287 289
274 275 275 274 275 278 278 278 278 273 267 269 272 273 273 273 274 274 273 272 271 277 275 275 277 276 277 278 281 282 283 284 284 285 285 285 286 287
274 274 275 275 274 274 275 277 277 278 279 277 273 273 272 273 273 273 273 273 272 275 274 273 275 274 276 278 281 282 283 283 283 284 285 285 285 285
274 274 274 274 274 274 273 273 274 275 276 276 274 274 274 275 273 273 272 271 272 273 275 270 274 274 276 276 280 282 282 282 283 283 283 283 283 284
274 274 274 273 276 278 275 273 272 273 276 277 277 277 276 276 275 271 267 267 267 270 273 271 273 272 274 274 277 280 281 281 281 281 282 283 283 283
272 274 276 276 278 279 276 271 268 270 272 269 268 270 271 271 273 271 269 266 266 264 270 268 269 270 268 272 275 274 275 278 280 280 281 281 282 279
270 271 273 277 278 278 279 274 269 274 265 262 264 266 267 268 269 270 270 268 266 265 270 271 269 268 268 268 271 273 273 274 275 276 279 280 280 280
269 272 273 277 278 278 278 277 277 274 260 259 261 263 265 266 268 268 269 269 270 269 270 270 268 268 267 266 267 271 272 273 274 274 275 277 279 279
274 274 277 278 279 277 274 275 272 264 260 257 261 264 266 267 267 267 268 268 268 269 270 270 269 269 269 267 267 269 270 271 273 273 274 274 274 275
275 272 274 276 275 274 268 269 268 265 264 263 264 265 266 265 264 266 264 265 264 264 268 270 270 269 267 268 269 268 270 269 272 272 273 274 275 275
269 261 262 265 264 265 263 263 264 264 262 263 263 263 263 263 263 264 264 263 262 262 264 266 268 269 268 268 265 267 268 269 271 272 272 272 274 275
273 270 265 266 265 265 262 262 263 263 263 262 258 260 261 261 261 262 263 262 261 262 263 264 265 264 265 266 271 267 269 269 271 273 273 272 272 275
274 274 265 264 264 264 262 262 262 262 261 258 259 259 260 259 259 260 261 261 261 261 262 264 263 263 261 260 266 273 269 269 270 270 271 272 273 275
266 261 263 262 262 262 262 260 261 259 257 256 256 254 254 257 258 258 259 259 260 260 261 263 263 264 263 262 263 267 274 271 271 271 274 276 279 281
261 261 261 261 261 260 259 258 257 256 253 250 249 249 252 253 257 257 259 259 259 260 260 261 264 267 267 267 264 265 270 276 276 275 275 273 270 270
257 258 259 260 259 258 258 257 255 254 250 248 249 249 251 252 257 257 258 257 258 260 261 263 264 264 264 263 263 265 268 271 273 275 277 277 273 270
258 253 257 258 258 258 257 256 255 255 251 248 247 247 249 251 254 257 256 257 258 260 260 261 262 263 262 263 264 266 265 266 267 267 270 275 276 277
Wind_Speed
4 4 2 2 2 2 1 0 0 4 4 3 3 3 6 9 14 12 13 22 28 27 27 28 28 28 27 26 26 25 26 27 27 26 27 26 26 26
2 3 2 1 2 1 1 1 1 2 5 1 3 7 7 9 13 13 13 24 24 25 25 27 27 28 29 27 27 27 27 26 26 26 25 26 26 27
2 2 1 1 1 2 2 1 1 2 6 8 4 8 10 11 11 12 13 11 10 23 26 26 27 26 28 28 28 29 27 27 24 27 26 26 27 26
1 1 3 1 3 2 2 3 2 3 4 14 10 8 11 11 12 13 12 10 10 17 26 27 24 25 25 27 26 26 27 26 25 26 25 23 22 24
3 4 4 4 4 3 2 3 3 5 4 7 11 8 9 10 12 11 11 12 9 20 22 25 26 25 25 25 27 26 25 26 27 28 25 24 23 23
4 5 5 4 5 5 4 4 5 4 5 7 9 10 10 10 10 11 12 10 12 11 16 19 25 26 24 26 25 25 26 25 24 23 24 25 26 25
5 5 5 6 9 9 4 4 5 5 5 7 9 10 10 10 13 12 13 13 12 11 11 10 10 9 11 17 19 22 25 26 25 24 23 24 25 25
5 5 5 6 9 12 12 14 12 6 4 4 9 11 13 12 11 12 14 14 12 7 8 11 9 9 9 9 21 26 25 25 25 24 22 22 23 24
6 5 6 5 5 5 11 14 14 16 16 12 12 12 15 15 15 15 15 15 14 12 14 14 9 11 9 10 22 26 26 25 24 23 19 17 20 22
7 7 7 7 6 7 8 9 9 6 6 8 10 13 13 14 15 14 16 15 12 10 12 15 10 11 9 8 22 28 23 19 17 18 25 25 24 23
7 6 6 7 11 15 10 8 5 5 9 18 18 20 24 24 19 11 9 11 12 10 10 12 8 11 11 12 9 20 18 20 25 26 24 24 24 24
5 7 12 12 16 17 8 4 4 6 9 4 7 10 13 13 19 10 9 10 11 10 7 9 12 11 7 7 6 11 11 22 25 25 24 24 24 10
6 6 6 15 16 16 18 3 5 10 3 2 5 7 8 8 7 8 10 10 10 11 14 12 10 11 8 11 10 9 10 11 10 14 21 22 22 18
7 7 7 16 17 18 13 8 15 12 2 3 4 7 7 7 8 9 11 11 10 14 15 14 10 11 12 12 12 8 9 10 10 12 10 17 22 22
6 10 17 19 20 9 7 12 7 0 2 3 5 7 7 8 10 10 11 12 13 13 11 13 11 12 10 12 13 11 14 10 11 10 9 10 11 10
12 7 10 13 12 9 2 4 3 2 3 4 6 7 7 7 8 7 9 10 10 11 10 10 11 12 11 11 11 13 11 10 11 11 10 11 12 11
9 2 2 3 3 2 2 3 3 3 3 4 5 6 7 7 8 8 8 10 10 11 12 9 9 11 11 14 12 11 12 12 10 12 12 12 14 11
10 11 7 7 7 5 4 4 3 4 4 4 2 4 6 7 8 8 8 8 10 11 11 11 11 11 9 7 15 8 9 10 11 12 11 11 14 13
10 9 6 6 6 5 4 4 4 3 2 2 3 5 6 6 8 8 8 9 10 10 10 10 10 9 10 12 8 12 9 13 12 12 10 10 12 14
5 3 5 5 4 4 4 3 3 2 2 3 3 3 4 5 7 7 8 9 10 11 11 9 8 8 10 12 14 17 21 11 11 13 8 8 9 18
7 5 4 2 2 3 4 3 3 3 3 3 3 3 3 4 7 7 8 12 12 9 11 11 10 17 11 10 8 10 11 22 14 11 7 7 4 3
6 5 4 3 3 3 3 3 3 3 2 3 4 3 4 4 7 7 8 9 9 9 11 10 12 10 9 8 10 13 10 10 15 18 14 10 5 5
7 5 4 3 3 3 3 3 3 5 3 4 4 3 3 4 4 7 8 8 9 9 10 11 10 8 9 8 11 9 12 10 8 8 7 16 15 14
Wind_Direction
91 74 65 49 36 26 39 350 234 319 301 291 320 27 341 335 329 328 324 318 323 321 318 319 317 313 309 313 310 305 303 303 303 303 302 300 299 293
100 70 48 5 9 15 359 326 348 228 278 271 314 320 336 320 321 322 312 317 316 320 321 317 313 321 316 311 314 315 317 313 309 304 302 300 297 296
74 64 335 317 270 316 326 298 261 237 268 293 323 319 317 318 314 310 306 304 308 314 316 318 316 317 315 314 308 307 308 304 324 315 299 295 295 297
214 266 262 284 296 284 270 272 249 247 264 291 310 312 311 311 302 297 302 302 301 302 313 318 316 316 313 314 313 318 304 313 309 307 317 310 296 289
231 245 264 265 277 257 248 267 248 281 257 275 294 302 299 303 301 298 296 296 294 302 305 308 310 308 310 309 314 312 311 308 302 297 304 311 312 312
246 251 257 253 258 258 260 255 262 257 268 277 290 300 299 305 294 302 304 299 301 300 298 295 297 298 299 307 308 308 306 303 301 302 301 299 296 296
252 253 249 248 251 266 270 244 244 258 270 284 291 298 301 308 309 307 299 303 301 296 293 292 293 290 294 294 295 296 295 303 305 302 300 297 294 296
257 256 251 252 266 275 277 284 281 278 261 288 290 299 304 307 308 306 300 301 304 297 302 301 292 290 288 285 292 302 304 301 302 301 300 299 296 292
241 254 255 245 241 247 275 284 286 287 288 302 306 302 306 305 303 304 311 314 308 316 303 298 298 290 291 290 298 301 301 302 300 299 301 300 305 304
243 246 251 258 240 254 255 258 262 258 274 291 294 296 293 310 311 307 306 304 298 293 288 291 301 292 298 289 294 297 303 300 305 315 311 305 299 298
243 247 243 252 256 270 272 271 258 278 288 300 303 313 310 311 315 317 316 313 307 312 309 305 319 320 306 294 280 295 308 305 305 306 301 302 302 301
245 254 252 252 254 261 271 232 268 286 299 326 310 311 312 307 318 317 309 308 313 306 304 312 304 316 303 288 307 318 302 297 301 300 300 301 303 300
230 241 241 258 267 272 273 193 226 293 1 287 316 313 306 304 302 308 312 304 298 285 295 308 308 301 281 301 294 296 291 293 297 297 298 299 298 294
223 235 236 258 270 271 276 286 300 319 3 341 306 299 300 303 310 307 304 295 286 287 296 297 291 295 297 294 294 299 296 290 287 287 293 294 293 293
240 237 252 262 268 274 287 292 305 61 291 301 281 284 293 305 306 304 302 299 292 290 291 292 288 291 285 284 290 291 298 296 285 280 285 288 287 286
267 278 269 262 235 235 191 279 265 229 243 259 281 291 303 305 301 308 308 311 305 305 298 294 303 300 298 293 296 292 290 284 296 289 287 285 282 273
251 256 207 247 236 233 244 236 235 250 255 262 274 290 301 299 303 311 304 304 302 309 309 313 307 298 288 285 286 279 288 290 282 287 293 287 282 277
236 242 220 214 217 218 222 235 230 239 252 258 256 280 294 302 304 307 300 302 302 306 306 312 317 318 311 283 261 277 285 284 288 291 282 276 282 286
270 271 224 204 208 213 221 219 237 228 210 237 275 285 293 297 301 303 303 302 302 303 303 308 311 312 313 310 288 296 309 295 295 289 279 270 267 279
279 216 227 214 203 212 223 219 233 221 220 244 255 259 272 279 297 297 299 301 303 304 305 310 308 307 308 302 299 302 298 286 286 284 294 288 278 274
300 292 285 257 221 215 224 218 225 239 218 238 258 246 263 263 290 288 293 301 299 300 306 311 311 309 298 295 292 296 302 314 333 325 320 311 297 309
278 259 240 234 231 228 223 223 238 253 251 246 254 252 265 256 285 290 295 297 300 296 304 304 312 314 312 305 300 304 313 321 323 327 319 336 330 318
276 242 234 223 216 226 231 234 238 260 243 244 252 250 251 269 269 281 285 287 291 301 309 312 317 319 309 302 300 312 321 325 324 329 322 337 333 330